owner,sensor,date,latitude,longitude,vertical_datum,sea_water_temperature,qcFlag 
TABS,ioos:station:wmo:42049:1,2008-07-09T02:00:00Z,28.3507,-96.0058,-2.0,28.67,11111222 
TABS,ioos:station:wmo:42049:1,2008-07-09T02:30:00Z,28.3507,-96.0058,-2.0,28.47,11111222 
TABS,ioos:station:wmo:42049:1,2008-07-09T03:00:00Z,28.3507,-96.0058,-2.0,28.35,11111222 
TABS,ioos:station:wmo:42049:1,2008-07-09T03:30:00Z,28.3507,-96.0058,-2.0,28.36,11111222 
TABS,ioos:station:wmo:42049:1,2008-07-09T04:00:00Z,28.3507,-96.0058,-2.0,28.39,11111222 
TABS,ioos:station:wmo:42049:1,2008-07-09T04:30:00Z,28.3507,-96.0058,-2.0,28.36,11111222 
TABS,ioos:station:wmo:42049:1,2008-07-09T05:00:00Z,28.3507,-96.0058,-2.0,28.35,11111222 
TABS,ioos:station:wmo:42049:1,2008-07-09T05:30:00Z,28.3507,-96.0058,-2.0,28.33,11111222 
TABS,ioos:station:wmo:42049:1,2008-07-09T06:00:00Z,28.3507,-96.0058,-2.0,28.28,11111222 
TABS,ioos:station:wmo:42049:1,2008-07-09T06:30:00Z,28.3507,-96.0058,-2.0,28.21,11111222 
TABS,ioos:station:wmo:42049:1,2008-07-09T07:00:00Z,28.3507,-96.0058,-2.0,28.17,11111222 
TABS,ioos:station:wmo:42049:1,2008-07-09T07:30:00Z,28.3507,-96.0058,-2.0,28.15,11111222 
TABS,ioos:station:wmo:42049:1,2008-07-09T08:00:00Z,28.3507,-96.0058,-2.0,28.21,11111222 
TABS,ioos:station:wmo:42049:1,2008-07-09T08:30:00Z,28.3507,-96.0058,-2.0,28.3,11111222 
TABS,ioos:station:wmo:42049:1,2008-07-09T09:00:00Z,28.3507,-96.0058,-2.0,28.31,11111222 
TABS,ioos:station:wmo:42049:1,2008-07-09T09:30:00Z,28.3507,-96.0058,-2.0,28.31,11111222 
TABS,ioos:station:wmo:42049:1,2008-07-09T10:00:00Z,28.3507,-96.0058,-2.0,28.29,11111222 
TABS,ioos:station:wmo:42049:1,2008-07-09T10:30:00Z,28.3507,-96.0058,-2.0,28.29,11111222 
TABS,ioos:station:wmo:42049:1,2008-07-09T11:00:00Z,28.3507,-96.0058,-2.0,28.3,11111222 
TABS,ioos:station:wmo:42049:1,2008-07-09T11:30:00Z,28.3507,-96.0058,-2.0,28.3,11111222 
TABS,ioos:station:wmo:42049:1,2008-07-09T12:00:00Z,28.3507,-96.0058,-2.0,28.28,11111222 
TABS,ioos:station:wmo:42049:1,2008-07-09T12:30:00Z,28.3507,-96.0058,-2.0,28.28,11111222 
TABS,ioos:station:wmo:42049:1,2008-07-09T13:00:00Z,28.3507,-96.0058,-2.0,28.27,11111222 
TABS,ioos:station:wmo:42049:1,2008-07-09T13:30:00Z,28.3507,-96.0058,-2.0,28.29,11111222 
TABS,ioos:station:wmo:42049:1,2008-07-09T14:00:00Z,28.3507,-96.0058,-2.0,28.31,11111222 
TABS,ioos:station:wmo:42049:1,2008-07-09T14:30:00Z,28.3507,-96.0058,-2.0,28.31,11111222 
TABS,ioos:station:wmo:42049:1,2008-07-09T15:00:00Z,28.3507,-96.0058,-2.0,28.31,11111222 
TABS,ioos:station:wmo:42049:1,2008-07-09T15:30:00Z,28.3507,-96.0058,-2.0,28.31,11111222 
TABS,ioos:station:wmo:42049:1,2008-07-09T16:00:00Z,28.3507,-96.0058,-2.0,28.35,11111222 
TABS,ioos:station:wmo:42049:1,2008-07-09T16:30:00Z,28.3507,-96.0058,-2.0,28.4,11111222 
TABS,ioos:station:wmo:42049:1,2008-07-09T17:00:00Z,28.3507,-96.0058,-2.0,28.47,11111222 
TABS,ioos:station:wmo:42049:1,2008-07-09T17:30:00Z,28.3507,-96.0058,-2.0,28.52,11111222 
TABS,ioos:station:wmo:42049:1,2008-07-09T18:00:00Z,28.3507,-96.0058,-2.0,28.58,11111222 
TABS,ioos:station:wmo:42049:1,2008-07-09T18:30:00Z,28.3507,-96.0058,-2.0,28.62,11111222 
TABS,ioos:station:wmo:42049:1,2008-07-09T19:00:00Z,28.3507,-96.0058,-2.0,28.65,11111222 
TABS,ioos:station:wmo:42049:1,2008-07-09T19:30:00Z,28.3507,-96.0058,-2.0,28.74,11111222 
TABS,ioos:station:wmo:42049:1,2008-07-09T20:00:00Z,28.3507,-96.0058,-2.0,28.81,11111222 
TABS,ioos:station:wmo:42049:1,2008-07-09T20:30:00Z,28.3507,-96.0058,-2.0,28.85,11111222 
TABS,ioos:station:wmo:42049:1,2008-07-09T21:00:00Z,28.3507,-96.0058,-2.0,28.81,11111222 
TABS,ioos:station:wmo:42049:1,2008-07-09T21:30:00Z,28.3507,-96.0058,-2.0,28.82,11111222 
TABS,ioos:station:wmo:42049:1,2008-07-09T22:00:00Z,28.3507,-96.0058,-2.0,28.82,11111222 
TABS,ioos:station:wmo:42049:1,2008-07-09T22:30:00Z,28.3507,-96.0058,-2.0,28.88,11111222 
TABS,ioos:station:wmo:42049:1,2008-07-09T23:00:00Z,28.3507,-96.0058,-2.0,28.89,11111222 
TABS,ioos:station:wmo:42049:1,2008-07-09T23:30:00Z,28.3507,-96.0058,-2.0,28.88,11111222 
TABS,ioos:station:wmo:42049:1,2008-07-10T00:00:00Z,28.3507,-96.0058,-2.0,28.84,11111222 
TABS,ioos:station:wmo:42049:1,2008-07-10T00:30:00Z,28.3507,-96.0058,-2.0,28.8,11111222 
TABS,ioos:station:wmo:42049:1,2008-07-10T01:30:00Z,28.3507,-96.0058,-2.0,28.69,11111222 
TABS,ioos:station:wmo:42049:1,2008-07-10T02:00:00Z,28.3507,-96.0058,-2.0,28.63,11111222 
TABS,ioos:station:wmo:42049:1,2008-07-10T02:30:00Z,28.3507,-96.0058,-2.0,28.59,11111222 
TABS,ioos:station:wmo:42049:1,2008-07-10T03:00:00Z,28.3507,-96.0058,-2.0,28.53,11111222 
TABS,ioos:station:wmo:42049:1,2008-07-10T03:30:00Z,28.3507,-96.0058,-2.0,28.51,11111222 
TABS,ioos:station:wmo:42049:1,2008-07-10T04:00:00Z,28.3507,-96.0058,-2.0,28.51,11111222 
TABS,ioos:station:wmo:42049:1,2008-07-10T04:30:00Z,28.3507,-96.0058,-2.0,28.51,11111222 
TABS,ioos:station:wmo:42049:1,2008-07-10T05:00:00Z,28.3507,-96.0058,-2.0,28.5,11111222 
TABS,ioos:station:wmo:42049:1,2008-07-10T05:30:00Z,28.3507,-96.0058,-2.0,28.48,11111222 
TABS,ioos:station:wmo:42049:1,2008-07-10T06:00:00Z,28.3507,-96.0058,-2.0,28.46,11111222 
TABS,ioos:station:wmo:42049:1,2008-07-10T06:30:00Z,28.3507,-96.0058,-2.0,28.45,11111222 
TABS,ioos:station:wmo:42049:1,2008-07-10T07:00:00Z,28.3507,-96.0058,-2.0,28.46,11111222 
TABS,ioos:station:wmo:42049:1,2008-07-10T07:30:00Z,28.3507,-96.0058,-2.0,28.44,11111222 
TABS,ioos:station:wmo:42049:1,2008-07-10T08:00:00Z,28.3507,-96.0058,-2.0,28.42,11111222 
TABS,ioos:station:wmo:42049:1,2008-07-10T08:30:00Z,28.3507,-96.0058,-2.0,28.42,11111222 
TABS,ioos:station:wmo:42049:1,2008-07-10T09:00:00Z,28.3507,-96.0058,-2.0,28.43,11111222 
TABS,ioos:station:wmo:42049:1,2008-07-10T09:30:00Z,28.3507,-96.0058,-2.0,28.45,11111222 
TABS,ioos:station:wmo:42049:1,2008-07-10T10:00:00Z,28.3507,-96.0058,-2.0,28.48,11111222 
TABS,ioos:station:wmo:42049:1,2008-07-10T10:30:00Z,28.3507,-96.0058,-2.0,28.49,11111222 
TABS,ioos:station:wmo:42049:1,2008-07-10T11:00:00Z,28.3507,-96.0058,-2.0,28.48,11111222 
TABS,ioos:station:wmo:42049:1,2008-07-10T11:30:00Z,28.3507,-96.0058,-2.0,28.5,11111222 
TABS,ioos:station:wmo:42049:1,2008-07-10T12:00:00Z,28.3507,-96.0058,-2.0,28.5,11111222 
TABS,ioos:station:wmo:42049:1,2008-07-10T12:30:00Z,28.3507,-96.0058,-2.0,28.5,11111222 
TABS,ioos:station:wmo:42049:1,2008-07-10T13:00:00Z,28.3507,-96.0058,-2.0,28.5,11111222 
TABS,ioos:station:wmo:42049:1,2008-07-10T13:30:00Z,28.3507,-96.0058,-2.0,28.51,11111222 
TABS,ioos:station:wmo:42049:1,2008-07-10T14:00:00Z,28.3507,-96.0058,-2.0,28.55,11111222 
TABS,ioos:station:wmo:42049:1,2008-07-10T14:30:00Z,28.3507,-96.0058,-2.0,28.57,11111222 
TABS,ioos:station:wmo:42049:1,2008-07-10T15:00:00Z,28.3507,-96.0058,-2.0,28.61,11111222 
TABS,ioos:station:wmo:42049:1,2008-07-10T15:30:00Z,28.3507,-96.0058,-2.0,28.64,11111222 
TABS,ioos:station:wmo:42049:1,2008-07-10T16:00:00Z,28.3507,-96.0058,-2.0,28.67,11111222 
TABS,ioos:station:wmo:42049:1,2008-07-10T16:30:00Z,28.3507,-96.0058,-2.0,28.73,11111222 
TABS,ioos:station:wmo:42049:1,2008-07-10T17:00:00Z,28.3507,-96.0058,-2.0,28.77,11111222 
TABS,ioos:station:wmo:42049:1,2008-07-10T17:30:00Z,28.3507,-96.0058,-2.0,28.79,11111222 
TABS,ioos:station:wmo:42049:1,2008-07-10T18:00:00Z,28.3507,-96.0058,-2.0,28.83,11111222 
TABS,ioos:station:wmo:42049:1,2008-07-10T18:30:00Z,28.3507,-96.0058,-2.0,28.92,11111222 
TABS,ioos:station:wmo:42049:1,2008-07-10T19:00:00Z,28.3507,-96.0058,-2.0,28.94,11111222 
TABS,ioos:station:wmo:42049:1,2008-07-10T19:30:00Z,28.3507,-96.0058,-2.0,29.01,11111222 
TABS,ioos:station:wmo:42049:1,2008-07-10T20:00:00Z,28.3507,-96.0058,-2.0,29.11,11111222 
TABS,ioos:station:wmo:42049:1,2008-07-10T20:30:00Z,28.3507,-96.0058,-2.0,29.2,11111222 
TABS,ioos:station:wmo:42049:1,2008-07-10T21:00:00Z,28.3507,-96.0058,-2.0,29.27,11111222 
TABS,ioos:station:wmo:42049:1,2008-07-10T21:30:00Z,28.3507,-96.0058,-2.0,29.24,11111222 
TABS,ioos:station:wmo:42049:1,2008-07-10T22:00:00Z,28.3507,-96.0058,-2.0,29.26,11111222 
TABS,ioos:station:wmo:42049:1,2008-07-10T22:30:00Z,28.3507,-96.0058,-2.0,29.31,11111222 
TABS,ioos:station:wmo:42049:1,2008-07-10T23:00:00Z,28.3507,-96.0058,-2.0,29.34,11111222 
TABS,ioos:station:wmo:42049:1,2008-07-10T23:30:00Z,28.3507,-96.0058,-2.0,29.35,11111222 
TABS,ioos:station:wmo:42049:1,2008-07-11T00:00:00Z,28.3507,-96.0058,-2.0,29.29,11111222 
TABS,ioos:station:wmo:42049:1,2008-07-11T00:30:00Z,28.3507,-96.0058,-2.0,29.26,11111222 
TABS,ioos:station:wmo:42049:1,2008-07-11T01:00:00Z,28.3507,-96.0058,-2.0,29.22,11111222 
TABS,ioos:station:wmo:42049:1,2008-07-11T01:30:00Z,28.3507,-96.0058,-2.0,29.19,11111222 
TABS,ioos:station:wmo:42049:1,2008-07-11T02:00:00Z,28.3507,-96.0058,-2.0,29.14,11111222 
TABS,ioos:station:wmo:42049:1,2008-07-11T02:30:00Z,28.3507,-96.0058,-2.0,29.11,11111222 
TABS,ioos:station:wmo:42049:1,2008-07-11T03:00:00Z,28.3507,-96.0058,-2.0,29.07,11111222 
TABS,ioos:station:wmo:42049:1,2008-07-11T03:30:00Z,28.3507,-96.0058,-2.0,29.05,11111222 
TABS,ioos:station:wmo:42049:1,2008-07-11T04:00:00Z,28.3507,-96.0058,-2.0,29.03,11111222 
TABS,ioos:station:wmo:42049:1,2008-07-11T04:30:00Z,28.3507,-96.0058,-2.0,29.02,11111222 
TABS,ioos:station:wmo:42049:1,2008-07-11T05:00:00Z,28.3507,-96.0058,-2.0,29.0,11111222 
TABS,ioos:station:wmo:42049:1,2008-07-11T05:30:00Z,28.3507,-96.0058,-2.0,28.96,11111222 
TABS,ioos:station:wmo:42049:1,2008-07-11T06:00:00Z,28.3507,-96.0058,-2.0,28.95,11111222 
TABS,ioos:station:wmo:42049:1,2008-07-11T06:30:00Z,28.3507,-96.0058,-2.0,28.91,11111222 
TABS,ioos:station:wmo:42049:1,2008-07-11T07:00:00Z,28.3507,-96.0058,-2.0,28.88,11111222 
TABS,ioos:station:wmo:42049:1,2008-07-11T07:30:00Z,28.3507,-96.0058,-2.0,28.85,11111222 
TABS,ioos:station:wmo:42049:1,2008-07-11T08:00:00Z,28.3507,-96.0058,-2.0,28.84,11111222 
TABS,ioos:station:wmo:42049:1,2008-07-11T08:30:00Z,28.3507,-96.0058,-2.0,28.83,11111222 
TABS,ioos:station:wmo:42049:1,2008-07-11T09:00:00Z,28.3507,-96.0058,-2.0,28.81,11111222 
TABS,ioos:station:wmo:42049:1,2008-07-11T09:30:00Z,28.3507,-96.0058,-2.0,28.82,11111222 
TABS,ioos:station:wmo:42049:1,2008-07-11T10:00:00Z,28.3507,-96.0058,-2.0,28.77,11111222 
TABS,ioos:station:wmo:42049:1,2008-07-11T10:30:00Z,28.3507,-96.0058,-2.0,28.76,11111222 
TABS,ioos:station:wmo:42049:1,2008-07-11T11:00:00Z,28.3507,-96.0058,-2.0,28.71,11111222 
TABS,ioos:station:wmo:42049:1,2008-07-11T11:30:00Z,28.3507,-96.0058,-2.0,28.66,11111222 
TABS,ioos:station:wmo:42049:1,2008-07-11T12:00:00Z,28.3507,-96.0058,-2.0,28.63,11111222 
TABS,ioos:station:wmo:42049:1,2008-07-11T12:30:00Z,28.3507,-96.0058,-2.0,28.62,11111222 
TABS,ioos:station:wmo:42049:1,2008-07-11T13:00:00Z,28.3507,-96.0058,-2.0,28.59,11111222 
TABS,ioos:station:wmo:42049:1,2008-07-11T13:30:00Z,28.3507,-96.0058,-2.0,28.59,11111222 
TABS,ioos:station:wmo:42049:1,2008-07-11T14:00:00Z,28.3507,-96.0058,-2.0,28.63,11111222 
TABS,ioos:station:wmo:42049:1,2008-07-11T14:30:00Z,28.3507,-96.0058,-2.0,28.73,11111222 
TABS,ioos:station:wmo:42049:1,2008-07-11T15:00:00Z,28.3507,-96.0058,-2.0,28.79,11111222 
TABS,ioos:station:wmo:42049:1,2008-07-11T15:30:00Z,28.3507,-96.0058,-2.0,28.86,11111222 
TABS,ioos:station:wmo:42049:1,2008-07-11T16:00:00Z,28.3507,-96.0058,-2.0,28.93,11111222 
TABS,ioos:station:wmo:42049:1,2008-07-11T16:30:00Z,28.3507,-96.0058,-2.0,29.02,11111222 
TABS,ioos:station:wmo:42049:1,2008-07-11T17:00:00Z,28.3507,-96.0058,-2.0,29.08,11111222 
TABS,ioos:station:wmo:42049:1,2008-07-11T17:30:00Z,28.3507,-96.0058,-2.0,29.17,11111222 
TABS,ioos:station:wmo:42049:1,2008-07-11T18:00:00Z,28.3507,-96.0058,-2.0,29.21,11111222 
TABS,ioos:station:wmo:42049:1,2008-07-11T18:30:00Z,28.3507,-96.0058,-2.0,29.25,11111222 
TABS,ioos:station:wmo:42049:1,2008-07-11T19:00:00Z,28.3507,-96.0058,-2.0,29.33,11111222 
TABS,ioos:station:wmo:42049:1,2008-07-11T19:30:00Z,28.3507,-96.0058,-2.0,29.41,11111222 
TABS,ioos:station:wmo:42049:1,2008-07-11T20:00:00Z,28.3507,-96.0058,-2.0,29.46,11111222 
TABS,ioos:station:wmo:42049:1,2008-07-11T20:30:00Z,28.3507,-96.0058,-2.0,29.51,11111222 
TABS,ioos:station:wmo:42049:1,2008-07-11T21:00:00Z,28.3507,-96.0058,-2.0,29.55,11111222 
TABS,ioos:station:wmo:42049:1,2008-07-11T21:30:00Z,28.3507,-96.0058,-2.0,29.59,11111222 
TABS,ioos:station:wmo:42049:1,2008-07-11T22:00:00Z,28.3507,-96.0058,-2.0,29.61,11111222 
TABS,ioos:station:wmo:42049:1,2008-07-11T22:30:00Z,28.3507,-96.0058,-2.0,29.62,11111222 
TABS,ioos:station:wmo:42049:1,2008-07-11T23:00:00Z,28.3507,-96.0058,-2.0,29.61,11111222 
TABS,ioos:station:wmo:42049:1,2008-07-11T23:30:00Z,28.3507,-96.0058,-2.0,29.6,11111222 
TABS,ioos:station:wmo:42049:1,2008-07-12T00:00:00Z,28.3507,-96.0058,-2.0,29.55,11111222 
TABS,ioos:station:wmo:42049:1,2008-07-12T00:30:00Z,28.3507,-96.0058,-2.0,29.52,11111222 
TABS,ioos:station:wmo:42049:1,2008-07-12T01:00:00Z,28.3507,-96.0058,-2.0,29.47,11111222 
TABS,ioos:station:wmo:42049:1,2008-07-12T01:30:00Z,28.3507,-96.0058,-2.0,29.42,11111222 
TABS,ioos:station:wmo:42049:1,2008-07-12T02:00:00Z,28.3507,-96.0058,-2.0,29.41,11111222 
TABS,ioos:station:wmo:42049:1,2008-07-12T02:30:00Z,28.3507,-96.0058,-2.0,29.39,11111222 
TABS,ioos:station:wmo:42049:1,2008-07-12T03:00:00Z,28.3507,-96.0058,-2.0,29.36,11111222 
TABS,ioos:station:wmo:42049:1,2008-07-12T03:30:00Z,28.3507,-96.0058,-2.0,29.32,11111222 
TABS,ioos:station:wmo:42049:1,2008-07-12T04:00:00Z,28.3507,-96.0058,-2.0,29.29,11111222 
TABS,ioos:station:wmo:42049:1,2008-07-12T04:30:00Z,28.3507,-96.0058,-2.0,29.24,11111222 
TABS,ioos:station:wmo:42049:1,2008-07-12T05:00:00Z,28.3507,-96.0058,-2.0,29.22,11111222 
TABS,ioos:station:wmo:42049:1,2008-07-12T05:30:00Z,28.3507,-96.0058,-2.0,29.2,11111222 
TABS,ioos:station:wmo:42049:1,2008-07-12T06:00:00Z,28.3507,-96.0058,-2.0,29.19,11111222 
TABS,ioos:station:wmo:42049:1,2008-07-12T06:30:00Z,28.3507,-96.0058,-2.0,29.17,11111222 
TABS,ioos:station:wmo:42049:1,2008-07-12T07:00:00Z,28.3507,-96.0058,-2.0,29.14,11111222 
TABS,ioos:station:wmo:42049:1,2008-07-12T07:30:00Z,28.3507,-96.0058,-2.0,29.11,11111222 
TABS,ioos:station:wmo:42049:1,2008-07-12T08:00:00Z,28.3507,-96.0058,-2.0,29.09,11111222 
TABS,ioos:station:wmo:42049:1,2008-07-12T08:30:00Z,28.3507,-96.0058,-2.0,29.06,11111222 
TABS,ioos:station:wmo:42049:1,2008-07-12T09:00:00Z,28.3507,-96.0058,-2.0,29.04,11111222 
TABS,ioos:station:wmo:42049:1,2008-07-12T09:30:00Z,28.3507,-96.0058,-2.0,29.01,11111222 
TABS,ioos:station:wmo:42049:1,2008-07-12T10:00:00Z,28.3507,-96.0058,-2.0,29.0,11111222 
TABS,ioos:station:wmo:42049:1,2008-07-12T10:30:00Z,28.3507,-96.0058,-2.0,28.98,11111222 
TABS,ioos:station:wmo:42049:1,2008-07-12T11:00:00Z,28.3507,-96.0058,-2.0,28.96,11111222 
TABS,ioos:station:wmo:42049:1,2008-07-12T11:30:00Z,28.3507,-96.0058,-2.0,28.95,11111222 
TABS,ioos:station:wmo:42049:1,2008-07-12T12:00:00Z,28.3507,-96.0058,-2.0,28.93,11111222 
TABS,ioos:station:wmo:42049:1,2008-07-12T12:30:00Z,28.3507,-96.0058,-2.0,28.91,11111222 
TABS,ioos:station:wmo:42049:1,2008-07-12T13:00:00Z,28.3507,-96.0058,-2.0,28.91,11111222 
TABS,ioos:station:wmo:42049:1,2008-07-12T13:30:00Z,28.3507,-96.0058,-2.0,28.91,11111222 
TABS,ioos:station:wmo:42049:1,2008-07-12T14:00:00Z,28.3507,-96.0058,-2.0,28.92,11111222 
TABS,ioos:station:wmo:42049:1,2008-07-12T14:30:00Z,28.3507,-96.0058,-2.0,28.95,11111222 
TABS,ioos:station:wmo:42049:1,2008-07-12T15:00:00Z,28.3507,-96.0058,-2.0,28.97,11111222 
TABS,ioos:station:wmo:42049:1,2008-07-12T15:30:00Z,28.3507,-96.0058,-2.0,29.01,11111222 
TABS,ioos:station:wmo:42049:1,2008-07-12T16:00:00Z,28.3507,-96.0058,-2.0,29.05,11111222 
TABS,ioos:station:wmo:42049:1,2008-07-12T16:30:00Z,28.3507,-96.0058,-2.0,29.11,11111222 
TABS,ioos:station:wmo:42049:1,2008-07-12T17:00:00Z,28.3507,-96.0058,-2.0,29.15,11111222 
TABS,ioos:station:wmo:42049:1,2008-07-12T17:30:00Z,28.3507,-96.0058,-2.0,29.18,11111222 
TABS,ioos:station:wmo:42049:1,2008-07-12T18:00:00Z,28.3507,-96.0058,-2.0,29.21,11111222 
TABS,ioos:station:wmo:42049:1,2008-07-12T18:30:00Z,28.3507,-96.0058,-2.0,29.26,11111222 
TABS,ioos:station:wmo:42049:1,2008-07-12T19:00:00Z,28.3507,-96.0058,-2.0,29.29,11111222 
TABS,ioos:station:wmo:42049:1,2008-07-12T19:30:00Z,28.3507,-96.0058,-2.0,29.31,11111222 
TABS,ioos:station:wmo:42049:1,2008-07-12T20:00:00Z,28.3507,-96.0058,-2.0,29.34,11111222 
TABS,ioos:station:wmo:42049:1,2008-07-12T20:30:00Z,28.3507,-96.0058,-2.0,29.35,11111222 
TABS,ioos:station:wmo:42049:1,2008-07-12T21:00:00Z,28.3507,-96.0058,-2.0,29.35,11111222 
TABS,ioos:station:wmo:42049:1,2008-07-12T21:30:00Z,28.3507,-96.0058,-2.0,29.36,11111222 
TABS,ioos:station:wmo:42049:1,2008-07-12T22:00:00Z,28.3507,-96.0058,-2.0,29.36,11111222 
TABS,ioos:station:wmo:42049:1,2008-07-12T22:30:00Z,28.3507,-96.0058,-2.0,29.38,11111222 
TABS,ioos:station:wmo:42049:1,2008-07-12T23:00:00Z,28.3507,-96.0058,-2.0,29.39,11111222 
TABS,ioos:station:wmo:42049:1,2008-07-12T23:30:00Z,28.3507,-96.0058,-2.0,29.39,11111222 
TABS,ioos:station:wmo:42049:1,2008-07-13T00:00:00Z,28.3507,-96.0058,-2.0,29.38,11111222 
TABS,ioos:station:wmo:42049:1,2008-07-13T00:30:00Z,28.3507,-96.0058,-2.0,29.37,11111222 
TABS,ioos:station:wmo:42049:1,2008-07-13T01:00:00Z,28.3507,-96.0058,-2.0,29.34,11111222 
TABS,ioos:station:wmo:42049:1,2008-07-13T01:30:00Z,28.3507,-96.0058,-2.0,29.3,11111222 
TABS,ioos:station:wmo:42049:1,2008-07-13T02:00:00Z,28.3507,-96.0058,-2.0,29.29,11111222 
TABS,ioos:station:wmo:42049:1,2008-07-13T02:30:00Z,28.3507,-96.0058,-2.0,29.27,11111222 
TABS,ioos:station:wmo:42049:1,2008-07-13T03:00:00Z,28.3507,-96.0058,-2.0,29.25,11111222 
TABS,ioos:station:wmo:42049:1,2008-07-13T03:30:00Z,28.3507,-96.0058,-2.0,29.23,11111222 
TABS,ioos:station:wmo:42049:1,2008-07-13T04:00:00Z,28.3507,-96.0058,-2.0,29.2,11111222 
TABS,ioos:station:wmo:42049:1,2008-07-13T04:30:00Z,28.3507,-96.0058,-2.0,29.19,11111222 
TABS,ioos:station:wmo:42049:1,2008-07-13T05:00:00Z,28.3507,-96.0058,-2.0,29.19,11111222 
TABS,ioos:station:wmo:42049:1,2008-07-13T05:30:00Z,28.3507,-96.0058,-2.0,29.19,11111222 
TABS,ioos:station:wmo:42049:1,2008-07-13T06:00:00Z,28.3507,-96.0058,-2.0,29.19,11111222 
TABS,ioos:station:wmo:42049:1,2008-07-13T06:30:00Z,28.3507,-96.0058,-2.0,29.18,11111222 
TABS,ioos:station:wmo:42049:1,2008-07-13T07:00:00Z,28.3507,-96.0058,-2.0,29.16,11111222 
TABS,ioos:station:wmo:42049:1,2008-07-13T07:30:00Z,28.3507,-96.0058,-2.0,29.15,11111222 
TABS,ioos:station:wmo:42049:1,2008-07-13T08:00:00Z,28.3507,-96.0058,-2.0,29.14,11111222 
TABS,ioos:station:wmo:42049:1,2008-07-13T08:30:00Z,28.3507,-96.0058,-2.0,29.12,11111222 
TABS,ioos:station:wmo:42049:1,2008-07-13T09:00:00Z,28.3507,-96.0058,-2.0,29.1,11111222 
TABS,ioos:station:wmo:42049:1,2008-07-13T09:30:00Z,28.3507,-96.0058,-2.0,29.08,11111222 
TABS,ioos:station:wmo:42049:1,2008-07-13T10:00:00Z,28.3507,-96.0058,-2.0,29.05,11111222 
TABS,ioos:station:wmo:42049:1,2008-07-13T10:30:00Z,28.3507,-96.0058,-2.0,29.03,11111222 
TABS,ioos:station:wmo:42049:1,2008-07-13T11:00:00Z,28.3507,-96.0058,-2.0,29.02,11111222 
TABS,ioos:station:wmo:42049:1,2008-07-13T11:30:00Z,28.3507,-96.0058,-2.0,28.99,11111222 
TABS,ioos:station:wmo:42049:1,2008-07-13T12:00:00Z,28.3507,-96.0058,-2.0,28.98,11111222 
TABS,ioos:station:wmo:42049:1,2008-07-13T12:30:00Z,28.3507,-96.0058,-2.0,28.97,11111222 
TABS,ioos:station:wmo:42049:1,2008-07-13T13:00:00Z,28.3507,-96.0058,-2.0,28.96,11111222 
TABS,ioos:station:wmo:42049:1,2008-07-13T13:30:00Z,28.3507,-96.0058,-2.0,28.95,11111222 
TABS,ioos:station:wmo:42049:1,2008-07-13T14:00:00Z,28.3507,-96.0058,-2.0,28.96,11111222 
TABS,ioos:station:wmo:42049:1,2008-07-13T14:30:00Z,28.3507,-96.0058,-2.0,28.97,11111222 
TABS,ioos:station:wmo:42049:1,2008-07-13T15:00:00Z,28.3507,-96.0058,-2.0,28.95,11111222 
TABS,ioos:station:wmo:42049:1,2008-07-13T15:30:00Z,28.3507,-96.0058,-2.0,28.96,11111222 
TABS,ioos:station:wmo:42049:1,2008-07-13T16:00:00Z,28.3507,-96.0058,-2.0,28.97,11111222 
TABS,ioos:station:wmo:42049:1,2008-07-13T16:30:00Z,28.3507,-96.0058,-2.0,28.99,11111222 
TABS,ioos:station:wmo:42049:1,2008-07-13T17:00:00Z,28.3507,-96.0058,-2.0,28.97,11111222 
TABS,ioos:station:wmo:42049:1,2008-07-13T17:30:00Z,28.3507,-96.0058,-2.0,29.04,11111222 
TABS,ioos:station:wmo:42049:1,2008-07-13T18:00:00Z,28.3507,-96.0058,-2.0,29.1,11111222 
TABS,ioos:station:wmo:42049:1,2008-07-13T18:30:00Z,28.3507,-96.0058,-2.0,29.18,11111222 
TABS,ioos:station:wmo:42049:1,2008-07-13T19:00:00Z,28.3507,-96.0058,-2.0,29.24,11111222 
TABS,ioos:station:wmo:42049:1,2008-07-13T19:30:00Z,28.3507,-96.0058,-2.0,29.29,11111222 
TABS,ioos:station:wmo:42049:1,2008-07-13T20:00:00Z,28.3507,-96.0058,-2.0,29.39,11111222 
TABS,ioos:station:wmo:42049:1,2008-07-13T20:30:00Z,28.3507,-96.0058,-2.0,29.44,11111222 
TABS,ioos:station:wmo:42049:1,2008-07-13T21:00:00Z,28.3507,-96.0058,-2.0,29.53,11111222 
TABS,ioos:station:wmo:42049:1,2008-07-13T21:30:00Z,28.3507,-96.0058,-2.0,29.66,11111222 
TABS,ioos:station:wmo:42049:1,2008-07-13T22:00:00Z,28.3507,-96.0058,-2.0,29.73,11111222 
TABS,ioos:station:wmo:42049:1,2008-07-13T22:30:00Z,28.3507,-96.0058,-2.0,29.85,11111222 
TABS,ioos:station:wmo:42049:1,2008-07-13T23:00:00Z,28.3507,-96.0058,-2.0,29.83,11111222 
TABS,ioos:station:wmo:42049:1,2008-07-13T23:30:00Z,28.3507,-96.0058,-2.0,29.77,11111222 
TABS,ioos:station:wmo:42049:1,2008-07-14T00:00:00Z,28.3507,-96.0058,-2.0,29.69,11111222 
TABS,ioos:station:wmo:42049:1,2008-07-14T00:30:00Z,28.3507,-96.0058,-2.0,29.63,11111222 
TABS,ioos:station:wmo:42049:1,2008-07-14T01:00:00Z,28.3507,-96.0058,-2.0,29.55,11111222 
TABS,ioos:station:wmo:42049:1,2008-07-14T01:30:00Z,28.3507,-96.0058,-2.0,29.48,11111222 
TABS,ioos:station:wmo:42049:1,2008-07-14T02:00:00Z,28.3507,-96.0058,-2.0,29.41,11111222 
TABS,ioos:station:wmo:42049:1,2008-07-14T02:30:00Z,28.3507,-96.0058,-2.0,29.3,11111222 
TABS,ioos:station:wmo:42049:1,2008-07-14T03:00:00Z,28.3507,-96.0058,-2.0,29.15,11111222 
TABS,ioos:station:wmo:42049:1,2008-07-14T03:30:00Z,28.3507,-96.0058,-2.0,29.0,11111222 
TABS,ioos:station:wmo:42049:1,2008-07-14T04:00:00Z,28.3507,-96.0058,-2.0,28.94,11111222 
TABS,ioos:station:wmo:42049:1,2008-07-14T04:30:00Z,28.3507,-96.0058,-2.0,28.91,11111222 
TABS,ioos:station:wmo:42049:1,2008-07-14T05:00:00Z,28.3507,-96.0058,-2.0,28.9,11111222 
TABS,ioos:station:wmo:42049:1,2008-07-14T05:30:00Z,28.3507,-96.0058,-2.0,28.89,11111222 
TABS,ioos:station:wmo:42049:1,2008-07-14T06:00:00Z,28.3507,-96.0058,-2.0,28.87,11111222 
TABS,ioos:station:wmo:42049:1,2008-07-14T06:30:00Z,28.3507,-96.0058,-2.0,28.81,11111222 
TABS,ioos:station:wmo:42049:1,2008-07-14T07:00:00Z,28.3507,-96.0058,-2.0,28.71,11111222 
TABS,ioos:station:wmo:42049:1,2008-07-14T07:30:00Z,28.3507,-96.0058,-2.0,28.63,11111222 
TABS,ioos:station:wmo:42049:1,2008-07-14T08:00:00Z,28.3507,-96.0058,-2.0,28.62,11111222 
TABS,ioos:station:wmo:42049:1,2008-07-14T08:30:00Z,28.3507,-96.0058,-2.0,28.61,11111222 
TABS,ioos:station:wmo:42049:1,2008-07-14T09:00:00Z,28.3507,-96.0058,-2.0,28.58,11111222 
TABS,ioos:station:wmo:42049:1,2008-07-14T09:30:00Z,28.3507,-96.0058,-2.0,28.56,11111222 
TABS,ioos:station:wmo:42049:1,2008-07-14T10:00:00Z,28.3507,-96.0058,-2.0,28.68,11111222 
TABS,ioos:station:wmo:42049:1,2008-07-14T10:30:00Z,28.3507,-96.0058,-2.0,28.68,11111222 
TABS,ioos:station:wmo:42049:1,2008-07-14T11:00:00Z,28.3507,-96.0058,-2.0,28.63,11111222 
TABS,ioos:station:wmo:42049:1,2008-07-14T11:30:00Z,28.3507,-96.0058,-2.0,28.65,11111222 
TABS,ioos:station:wmo:42049:1,2008-07-14T12:00:00Z,28.3507,-96.0058,-2.0,28.59,11111222 
TABS,ioos:station:wmo:42049:1,2008-07-14T12:30:00Z,28.3507,-96.0058,-2.0,28.54,11111222 
TABS,ioos:station:wmo:42049:1,2008-07-14T13:00:00Z,28.3507,-96.0058,-2.0,28.52,11111222 
TABS,ioos:station:wmo:42049:1,2008-07-14T13:30:00Z,28.3507,-96.0058,-2.0,28.49,11111222 
TABS,ioos:station:wmo:42049:1,2008-07-14T14:00:00Z,28.3507,-96.0058,-2.0,28.45,11111222 
TABS,ioos:station:wmo:42049:1,2008-07-14T14:30:00Z,28.3507,-96.0058,-2.0,28.43,11111222 
TABS,ioos:station:wmo:42049:1,2008-07-14T15:00:00Z,28.3507,-96.0058,-2.0,28.65,11111222 
TABS,ioos:station:wmo:42049:1,2008-07-14T15:30:00Z,28.3507,-96.0058,-2.0,28.81,11111222 
TABS,ioos:station:wmo:42049:1,2008-07-14T16:00:00Z,28.3507,-96.0058,-2.0,28.88,11111222 